User: anonymous   Login
Location: La Brionne
(46.1728°N, 1.7849°E)
Time: 17:15:26
(UTC+00:00)
Language:

Cosmos 2333 Rocket - Orbit

View from above orbital plane
View from above orbital plane
View from above satellite
View from above satellite

Ground track
Ground track

The orbit data is extracted from the following two-line orbital elements,

1 24298U 96051B   21262.63290663 -.00000192  00000-0 -77770-4 0  9990
2 24298  70.8269  22.2762 0014224  22.2059 337.9674 14.12417161291192
Epoch (UTC): 19 September 2021 15:11:23
Eccentricity: 0.0014224
inclination: 70.8269°
perigee height: 841 km
apogee height: 861 km
right ascension of ascending node: 22.2762°
argument of perigee: 22.2059°
revolutions per day: 14.12417161
mean anomaly at epoch: 337.9674°
orbit number at epoch: 29119

The dashed part of the orbit path shows where the satellite is in the earth's shadow,  

DLR